Location: Newark
(3.0500°N, 36.0167°E)
Time: 22:15:18
(UTC+00:00)

A-11 Canister half - All Passes

Search period start: 25 August 2019 00:00
Search period end: 04 September 2019 00:00
Orbit: 1526 x 1682 km, 47.3° (Epoch: 24 August)

Date Brightness Start Highest point End Pass type
(mag) Time Alt. Az. Time Alt. Az. Time Alt. Az.
25 Aug - 03:24:13 10° SE 03:25:35 10° SE 03:26:57 10° SE daylight
25 Aug - 05:21:23 10° SSW 05:30:47 67° SE 05:40:28 10° NE daylight
25 Aug - 07:28:16 10° W 07:35:53 26° NW 07:43:45 10° N daylight
25 Aug - 16:07:18 10° NNW 16:16:27 39° NE 16:25:21 10° ESE visible
25 Aug - 18:12:03 10° WNW 18:21:24 46° SW 18:30:30 10° SSE visible
26 Aug - 04:59:51 10° SSW 05:09:09 63° SE 05:18:44 10° NE daylight
26 Aug - 07:06:22 10° WSW 07:14:12 28° NW 07:22:18 10° N daylight
26 Aug - 15:45:47 10° NNW 15:54:47 37° NE 16:03:33 10° ESE visible
26 Aug - 17:50:16 10° WNW 17:59:46 50° SW 18:09:00 10° SSE visible
27 Aug - 04:38:19 10° SSW 04:47:33 58° SE 04:57:01 10° NE daylight
27 Aug - 06:44:30 10° WSW 06:52:32 30° NW 07:00:49 10° N daylight
27 Aug - 15:24:16 10° NNW 15:33:06 34° NE 15:41:43 10° ESE daylight
27 Aug - 17:28:30 10° NW 17:38:07 53° SW 17:47:30 10° SSE visible
28 Aug - 04:16:48 10° SSW 04:25:55 54° SE 04:35:16 10° NE daylight
28 Aug - 06:22:39 10° WSW 06:30:52 33° NW 06:39:21 10° NNE daylight
28 Aug - 15:02:47 10° NNW 15:11:26 32° NE 15:19:52 10° ESE daylight
28 Aug - 17:06:45 10° NW 17:16:29 57° SW 17:25:59 10° SSE visible
29 Aug - 03:55:18 10° SSW 04:04:18 50° SE 04:13:31 10° ENE daylight
29 Aug - 06:00:50 10° WSW 06:09:12 35° NW 06:17:51 10° NNE daylight
29 Aug - 14:41:18 10° N 14:49:44 30° NE 14:57:59 10° ESE daylight
29 Aug - 16:45:00 10° NW 16:54:51 62° SW 17:04:27 10° SSE visible
30 Aug - 03:33:49 10° SSW 03:42:41 47° SE 03:51:45 10° ENE daylight
30 Aug - 05:39:02 10° WSW 05:47:33 37° NW 05:56:21 10° NNE daylight
30 Aug - 14:19:51 10° N 14:28:04 28° NE 14:36:06 10° E daylight
30 Aug - 16:23:16 10° NW 16:33:13 66° SW 16:42:54 10° SSE visible
30 Aug - 18:36:47 10° WSW 18:38:31 11° SW 18:40:14 10° SW visible
31 Aug - 03:12:20 10° SSW 03:21:04 43° SE 03:29:58 10° ENE visible
31 Aug - 05:17:15 10° WSW 05:25:54 40° NW 05:34:50 10° NNE daylight
31 Aug - 13:58:23 10° N 14:06:21 26° NE 14:14:10 10° E daylight
31 Aug - 16:01:34 10° NW 16:11:34 71° SW 16:21:20 10° SSE visible
31 Aug - 18:13:35 10° WSW 18:16:49 12° SW 18:20:02 10° SSW visible
01 Sep - 02:50:53 10° SSW 02:59:27 40° SE 03:08:10 10° ENE visible
01 Sep - 04:55:30 10° WSW 05:04:15 43° NW 05:13:17 10° NNE daylight
01 Sep - 13:36:58 10° N 13:44:39 24° NE 13:52:12 10° E daylight
01 Sep - 15:39:51 10° NW 15:49:56 75° SW 15:59:46 10° SSE visible
01 Sep - 17:50:55 10° WSW 17:55:07 13° SW 17:59:17 10° SSW visible
02 Sep - 02:29:26 10° SSW 02:37:50 37° SE 02:46:22 10° ENE visible
02 Sep - 04:33:45 10° WSW 04:42:37 46° NW 04:51:46 10° NNE daylight
02 Sep - 13:15:34 10° N 13:22:57 22° NE 13:30:12 10° E daylight
02 Sep - 15:18:10 10° NW 15:28:17 80° SW 15:38:11 10° SE daylight
02 Sep - 17:28:28 10° W 17:33:26 15° SW 17:38:21 10° SSW visible
03 Sep - 02:08:00 10° SSW 02:16:13 34° SE 02:24:31 10° ENE visible
03 Sep - 04:12:01 10° WSW 04:20:59 49° NW 04:30:13 10° NNE daylight
03 Sep - 12:54:12 10° N 13:01:14 21° NE 13:08:10 10° E daylight
03 Sep - 14:56:30 10° NW 15:06:39 85° SW 15:16:34 10° SE daylight
03 Sep - 17:06:09 10° W 17:11:44 16° SW 17:17:16 10° SSW visible
